Voltar ao catálogo

STARLINK-31792

AtivoComunicaçõesVLEO
NORAD 60132·PAYLOAD·🇺🇸 United States

Lançado Jun 24, 2024 de Vandenberg Space Force Base

Loading…

Próximas Passagens (próximas 24 horas)

TLE

AtualizadoSource: CelesTrak SupGP

Época: Sep 14, 2026, 22:41 UTC

1 60132C 24118V   26257.94562500  .00014167  00000+0  41848-3 0  2574
2 60132  53.1575 223.7181 0001357  92.3779  28.5115 15.34390253    15

Acompanhe STARLINK-31792 em tempo real com AllMySat

Download on the App Store